Location: Unspecified
(0.0000°N, 0.0000°E)
Time: 00:22:18
(UTC+00:00)

Courier 1B Rocket - All Passes

Search period start: 02 August 2014 00:00
Search period end: 12 August 2014 00:00
Orbit: 921 x 1202 km, 28.3° (Epoch: 31 July)

Date Brightness Start Highest point End Pass type
(mag) Time Alt. Az. Time Alt. Az. Time Alt. Az.
02 Aug - 06:14:25 10° SSW 06:18:38 18° SSE 06:22:59 10° ESE daylight
02 Aug - 08:05:47 10° SW 08:12:21 65° SSE 08:19:25 10° ENE daylight
02 Aug - 09:59:43 10° W 10:06:05 38° NNW 10:12:51 10° NE daylight
02 Aug - 11:57:32 10° NW 12:00:43 13° NNW 12:03:58 10° N daylight
02 Aug - 17:43:44 10° NNW 17:48:44 18° NNE 17:53:34 10° ENE daylight
02 Aug - 19:35:44 10° NW 19:43:04 55° NNE 19:49:54 10° ESE visible
02 Aug - 21:29:57 10° W 21:36:44 44° SSW 21:43:04 10° SE visible
02 Aug - 23:28:05 10° SW 23:30:44 12° SSW 23:33:19 10° S night (unlit)
03 Aug - 05:15:24 10° S 05:17:22 11° SSE 05:19:21 10° SE visible
03 Aug - 07:05:16 10° SW 07:11:20 42° SSE 07:17:46 10° E daylight
03 Aug - 08:58:20 10° WSW 09:04:54 55° NNW 09:11:57 10° NE daylight
03 Aug - 10:54:32 10° WNW 10:59:08 18° NNW 11:03:55 10° NNE daylight
03 Aug - 16:43:41 10° N 16:47:07 13° NNE 16:50:29 10° NE daylight
03 Aug - 18:34:49 10° NW 18:41:49 38° NNE 18:48:26 10° E visible
03 Aug - 20:28:16 10° WNW 20:35:39 67° SSW 20:42:30 10° SE visible
03 Aug - 22:24:39 10° WSW 22:29:26 19° SSW 22:34:03 10° SSE visible
04 Aug - 06:05:01 10° SSW 06:10:18 27° SSE 06:15:47 10° E daylight
04 Aug - 07:57:17 10° WSW 08:03:50 82° NNW 08:10:52 10° ENE daylight
04 Aug - 09:52:16 10° WNW 09:57:43 25° NNW 10:03:29 10° NNE daylight
04 Aug - 17:34:07 10° NNW 17:40:27 27° NNE 17:46:33 10° E daylight
04 Aug - 19:26:52 10° WNW 19:34:31 83° NNE 19:41:39 10° ESE visible
04 Aug - 21:22:05 10° W 21:28:15 29° SSW 21:34:04 10° SSE visible
05 Aug - 05:05:07 10° SSW 05:09:11 18° SSE 05:13:20 10° ESE visible
05 Aug - 06:56:30 10° SW 07:02:50 66° SSE 07:09:34 10° ENE daylight
05 Aug - 08:50:29 10° W 08:56:28 35° NNW 09:02:51 10° NE daylight
05 Aug - 10:48:36 10° NW 10:51:03 12° NNW 10:53:32 10° N daylight
05 Aug - 16:33:40 10° NNW 16:38:57 19° NNE 16:44:09 10° ENE daylight
05 Aug - 18:25:43 10° NW 18:33:18 57° NNE 18:40:29 10° ESE visible
05 Aug - 20:20:00 10° W 20:27:05 44° SSW 20:33:44 10° SE visible
05 Aug - 22:18:08 10° SW 22:21:12 13° SSW 22:24:12 10° S visible
06 Aug - 04:06:03 10° S 04:07:57 11° SSE 04:09:51 10° SE visible
06 Aug - 05:55:59 10° SW 06:01:53 42° SSE 06:08:02 10° E daylight
06 Aug - 07:49:06 10° WSW 07:55:21 52° NNW 08:02:02 10° NE daylight
06 Aug - 09:45:26 10° WNW 09:49:30 16° NNW 09:53:44 10° NNE daylight
06 Aug - 15:33:38 10° N 15:37:20 14° NNE 15:41:01 10° NE daylight
06 Aug - 17:24:49 10° NW 17:32:00 40° NNE 17:38:58 10° E daylight
06 Aug - 19:18:18 10° WNW 19:25:55 66° SSW 19:33:06 10° SE visible
06 Aug - 21:14:44 10° WSW 21:19:51 20° SSW 21:24:46 10° SSE visible
07 Aug - 04:55:42 10° SSW 05:00:53 27° SSE 05:06:10 10° E visible
07 Aug - 06:48:02 10° WSW 06:54:21 80° NNW 07:01:03 10° ENE daylight
07 Aug - 08:43:07 10° WNW 08:48:09 23° NNW 08:53:27 10° NNE daylight
07 Aug - 16:24:08 10° NNW 16:30:37 28° NNE 16:37:00 10° E daylight
07 Aug - 18:16:53 10° WNW 18:24:43 85° NNE 18:32:11 10° ESE visible
07 Aug - 20:12:08 10° W 20:18:34 30° SSW 20:24:42 10° SSE visible
08 Aug - 03:55:43 10° SSW 03:59:48 18° SSE 04:03:52 10° ESE visible
08 Aug - 05:47:13 10° SW 05:53:26 67° SSE 05:59:52 10° ENE daylight
08 Aug - 07:41:18 10° W 07:46:58 33° NNW 07:52:56 10° NE daylight
08 Aug - 09:40:13 10° NNW 09:41:27 11° NNW 09:42:42 10° N daylight
08 Aug - 15:23:45 10° NNW 15:29:08 20° NNE 15:34:31 10° ENE daylight
08 Aug - 17:15:46 10° NW 17:23:27 59° NNE 17:30:56 10° ESE daylight
08 Aug - 19:10:03 10° W 19:17:20 44° SSW 19:24:17 10° SE visible
08 Aug - 21:08:06 10° SW 21:11:36 14° SSW 21:15:01 10° S visible
09 Aug - 02:56:24 10° S 02:58:33 12° SSE 03:00:41 10° SE visible
09 Aug - 04:46:38 10° SW 04:52:30 42° SSE 04:58:27 10° E visible
09 Aug - 06:39:52 10° WSW 06:45:55 49° NNW 06:52:14 10° NE daylight
09 Aug - 08:36:28 10° NW 08:39:58 15° NNW 08:43:35 10° N daylight
09 Aug - 14:23:49 10° N 14:27:32 14° NNE 14:31:17 10° NE daylight
09 Aug - 16:14:53 10° NW 16:22:08 41° NNE 16:29:20 10° E daylight
09 Aug - 18:08:20 10° WNW 18:16:05 66° SSW 18:23:34 10° SE daylight
09 Aug - 20:04:46 10° WSW 20:10:10 21° SSW 20:15:23 10° SSE visible
10 Aug - 03:46:16 10° SSW 03:51:31 28° SSE 03:56:44 10° E visible
10 Aug - 05:38:45 10° WSW 05:44:58 77° NNW 05:51:23 10° NE visible
10 Aug - 07:34:01 10° WNW 07:38:40 21° NNW 07:43:31 10° NNE daylight
10 Aug - 15:14:17 10° NNW 15:20:46 29° NNE 15:27:17 10° E daylight
10 Aug - 17:06:58 10° WNW 17:14:50 87° NNE 17:22:34 10° ESE daylight
10 Aug - 19:02:11 10° W 19:08:48 30° SSW 19:15:12 10° SSE visible
11 Aug - 02:46:09 10° SSW 02:50:25 19° SSE 02:54:36 10° ESE visible
11 Aug - 04:37:51 10° SW 04:44:04 69° SSE 04:50:20 10° ENE visible
11 Aug - 06:32:07 10° W 06:37:32 31° NNW 06:43:09 10° NNE daylight
11 Aug - 14:14:00 10° NNW 14:19:19 20° NNE 14:24:43 10° ENE daylight
11 Aug - 16:05:54 10° NW 16:13:33 61° NNE 16:21:14 10° ESE daylight
11 Aug - 18:00:07 10° W 18:07:29 44° SSW 18:14:41 10° SE daylight
11 Aug - 19:58:04 10° SW 20:01:54 14° SSW 20:05:40 10° S visible
